Theta_e
320 320 320 319 318 313 305 304 306 304 305 306 307 308 309 312 315 319 317 317 314 312 312 313 316 317 316 325 329 326 320 320 318 319 324 332 332 327 326 327 328 332 330 327 326 327 327
311 310 306 305 305 305 303 303 304 303 304 305 305 306 307 308 312 318 315 316 315 312 312 315 316 316 324 332 330 323 321 319 319 324 329 330 328 326 326 327 329 331 328 326 326 328 329
307 305 305 303 303 302 303 303 303 304 304 305 305 306 306 308 310 317 316 317 316 313 312 313 317 323 331 330 331 327 324 322 323 322 329 330 328 325 325 330 334 328 327 326 326 327 329
302 302 302 302 303 303 303 304 304 305 305 306 306 306 307 308 309 314 317 317 317 315 314 313 313 323 332 330 329 328 326 326 326 328 329 328 329 325 327 333 333 327 326 326 327 327 327
304 304 304 304 304 304 304 304 303 304 305 306 306 307 307 307 308 313 318 319 318 317 316 318 323 329 335 327 329 329 330 330 329 328 328 328 328 330 331 330 328 326 327 328 328 329 328
306 305 305 303 302 302 302 302 302 302 303 304 305 306 307 308 309 311 319 322 322 321 325 325 328 330 333 326 328 328 327 328 328 328 328 328 324 324 325 326 328 328 328 329 329 327 328
307 306 306 304 302 300 301 301 301 301 302 303 304 305 307 308 310 310 319 325 325 327 327 330 331 334 334 330 328 328 328 327 328 329 328 328 327 327 327 328 328 327 327 328 330 328 328
307 308 306 306 303 300 300 300 300 301 301 302 303 304 306 309 310 315 322 325 324 324 324 326 329 330 329 327 325 326 328 327 328 325 327 328 327 328 329 329 328 327 327 328 330 329 328
308 307 307 306 304 302 300 300 300 300 301 301 303 303 305 308 311 325 326 325 325 326 325 328 328 328 328 326 326 325 326 327 328 327 327 326 328 330 330 328 329 328 328 330 330 329 329
308 308 307 306 305 303 300 300 300 300 301 301 302 303 304 307 322 322 327 326 326 325 327 332 327 325 326 326 325 327 326 327 327 327 327 327 329 329 328 329 330 328 328 329 330 329 327
307 307 306 306 305 304 302 301 301 301 301 301 302 303 304 304 312 325 328 326 327 325 337 330 326 328 325 325 326 326 327 325 326 326 328 327 329 328 329 330 329 330 327 327 328 326 327
306 306 306 306 305 304 302 301 301 301 301 302 302 303 304 310 314 321 327 327 327 330 336 328 326 325 324 325 326 326 326 325 326 326 327 327 328 328 328 329 329 328 328 328 327 326 328
306 306 305 305 304 304 303 302 301 301 301 302 303 305 305 306 316 319 325 326 332 333 331 329 325 325 324 324 325 326 326 325 324 327 327 327 327 326 328 328 328 327 328 329 331 332 333
304 304 304 304 303 303 303 303 302 302 302 302 304 306 310 311 316 321 324 328 336 335 332 330 327 325 324 325 325 326 326 325 325 325 325 327 331 327 329 329 330 330 329 329 337 335 331
304 304 304 303 303 303 303 303 302 301 302 302 305 308 315 317 325 324 326 332 335 334 329 330 329 328 325 326 326 326 325 326 326 325 326 328 332 329 329 329 328 330 328 329 329 331 329
304 304 304 304 303 303 303 303 303 302 302 303 309 315 321 317 322 325 326 327 327 326 326 330 330 329 328 328 327 328 330 329 329 329 327 330 331 330 330 328 329 328 328 328 327 331 334
304 304 304 304 304 303 303 303 303 302 301 304 314 324 325 322 323 324 326 326 325 325 328 328 329 328 327 329 329 329 329 329 328 329 327 328 329 329 330 330 330 330 328 330 327 328 332
305 304 304 304 303 304 303 303 302 302 302 303 315 326 324 325 325 324 324 324 323 325 327 327 325 326 326 329 331 331 331 332 329 329 329 330 328 333 331 330 330 332 330 330 331 333 328
304 304 304 303 303 303 303 302 302 302 303 305 314 320 322 325 325 321 323 324 324 326 326 325 325 325 324 327 330 332 332 330 329 330 330 330 331 331 330 328 328 332 332 332 331 330 331
304 304 304 303 303 303 303 302 302 302 302 305 315 328 324 322 321 321 321 324 327 325 324 324 327 327 328 328 327 331 331 330 327 327 332 329 329 333 330 330 327 329 330 332 329 329 329
303 303 303 303 302 303 303 302 302 302 302 306 321 329 324 329 328 326 330 325 327 326 325 326 325 325 326 329 330 329 329 329 327 334 327 326 331 331 327 326 325 327 327 325 324 326 328
303 302 303 303 301 302 303 302 302 302 304 311 322 322 321 323 324 324 325 331 328 327 327 328 327 326 327 329 330 332 330 331 330 329 328 325 329 331 330 328 328 329 327 326 323 323 323
303 303 303 302 302 302 303 302 302 302 305 311 315 315 318 323 321 320 323 327 324 324 325 325 327 328 331 329 328 327 325 326 330 329 329 330 330 335 333 332 329 328 327 325 324 324 325
302 302 302 302 302 302 303 302 302 302 301 304 309 312 317 321 320 321 320 320 322 327 328 328 329 328 329 326 327 327 327 326 327 327 324 331 333 331 331 330 332 327 326 326 326 325 327
302 303 302 303 303 303 302 302 302 302 301 302 305 313 317 319 320 321 321 322 322 326 326 326 327 327 325 326 328 330 329 330 329 328 325 323 332 329 331 331 329 329 328 334 335 332 334
302 302 302 303 303 303 302 302 302 302 302 302 304 311 315 317 318 316 317 321 322 323 323 324 323 324 324 325 327 331 331 329 330 327 324 322 328 329 329 330 331 328 329 332 333 334 338
302 302 303 303 302 303 302 301 301 302 302 302 304 308 311 315 315 316 318 319 319 321 326 323 324 325 324 324 325 325 325 325 326 326 325 330 329 330 331 331 329 328 329 331 335 337 336
303 303 303 303 302 303 303 301 301 302 302 302 304 309 310 314 314 314 315 317 317 318 321 319 324 326 326 326 327 326 327 326 325 326 330 331 334 331 331 332 331 336 337 341 340 335 333
302 302 303 303 302 303 303 302 301 301 302 301 305 306 308 312 313 312 311 312 313 315 316 317 320 323 327 328 327 328 331 329 327 327 326 325 329 333 330 330 333 332 335 333 331 332 332
Wind_Speed
21 21 22 22 22 23 25 26 26 28 29 29 30 30 31 32 34 25 16 15 12 11 9 5 6 7 3 3 7 5 8 9 9 9 9 9 10 8 9 9 12 5 4 6 7 8 4
23 22 22 22 23 23 24 25 26 28 30 30 31 32 32 33 34 28 17 16 9 9 8 4 3 11 1 4 4 5 8 11 8 10 12 14 8 10 7 9 7 8 5 7 6 5 3
21 21 21 22 23 23 24 25 26 29 30 30 32 33 33 33 33 31 19 15 6 6 6 4 7 5 4 9 5 8 7 10 12 15 11 21 14 6 9 10 8 8 5 8 8 7 4
21 22 23 23 24 24 26 27 28 29 31 31 32 33 33 33 33 32 20 11 4 3 3 4 4 1 6 6 14 11 12 14 16 12 21 16 11 6 6 10 11 10 5 3 7 7 5
21 22 23 23 24 26 27 28 29 31 31 31 33 33 34 33 32 31 18 10 5 3 2 1 1 3 7 8 8 12 17 18 16 15 16 10 7 5 9 7 7 6 8 6 5 3 3
21 23 23 24 25 26 27 28 30 31 32 32 33 33 34 32 30 32 20 13 5 3 3 3 9 5 6 8 12 15 12 12 7 8 5 4 3 4 5 2 5 6 7 8 8 6 3
22 23 24 25 26 27 27 28 30 31 32 32 33 34 35 32 28 32 23 2 1 1 7 9 3 6 6 17 11 13 14 8 7 3 6 9 3 7 13 10 3 7 7 7 5 7 5
21 23 24 25 27 28 28 29 30 31 33 33 33 34 34 32 30 20 14 3 4 6 8 12 18 19 6 13 6 8 15 6 5 8 8 4 9 11 3 4 4 7 8 7 1 9 7
21 23 24 25 27 29 29 29 30 32 33 34 33 34 34 32 25 8 11 3 7 10 4 8 15 14 5 7 9 10 12 8 8 8 11 9 8 4 2 5 5 4 5 4 3 6 3
21 23 24 26 28 30 30 30 31 32 34 34 33 34 32 36 6 21 8 10 9 5 2 6 8 7 10 7 7 10 17 9 7 10 9 5 4 5 5 6 1 7 9 9 9 8 3
21 23 25 27 29 31 32 33 33 34 35 35 34 34 30 24 16 8 11 15 11 3 3 12 8 6 11 9 4 10 21 8 13 11 1 8 3 7 3 4 7 3 7 7 7 7 4
21 22 24 27 29 32 34 35 35 36 37 36 36 33 32 10 14 14 21 20 14 1 6 10 7 7 9 9 9 10 7 7 5 7 8 7 2 3 3 5 4 4 6 8 7 4 3
21 22 25 28 32 35 36 36 37 38 39 38 39 30 29 17 7 11 13 8 0 4 9 8 9 10 10 9 12 10 7 6 4 2 6 9 10 7 4 4 6 6 4 4 6 5 3
22 24 27 29 32 35 37 38 38 40 41 42 40 30 15 18 15 11 16 3 4 9 9 7 10 13 10 11 12 13 10 7 10 9 5 5 9 10 6 5 1 3 3 4 2 3 6
23 25 27 29 32 35 38 40 40 41 42 43 36 17 12 16 6 8 1 3 6 5 13 10 5 3 10 13 11 10 11 12 10 11 9 2 2 11 8 5 6 4 3 4 2 4 3
23 25 26 28 30 34 38 40 41 42 43 33 26 11 11 15 20 12 1 5 6 9 13 9 5 4 4 7 6 7 5 6 8 3 9 2 2 3 6 8 1 5 4 4 4 2 5
21 25 25 27 29 32 36 39 41 43 44 26 7 4 3 11 12 1 4 6 9 17 1 4 6 9 10 9 9 4 10 9 9 6 9 5 4 8 6 3 8 0 1 4 4 4 1
20 23 23 26 29 30 33 36 39 42 44 26 9 3 13 9 2 3 6 7 6 14 5 1 3 8 8 10 9 7 4 4 8 8 9 3 3 2 9 7 8 2 8 5 5 6 2
19 22 24 25 25 28 30 33 35 37 36 16 6 4 10 8 3 6 10 18 19 8 6 3 4 6 9 6 5 6 6 6 10 7 3 5 2 2 8 8 6 3 2 5 1 3 5
20 21 23 24 22 25 27 30 32 34 31 13 4 4 3 2 5 7 9 12 15 7 3 8 7 8 7 6 6 5 5 5 12 6 6 6 2 4 5 5 6 5 8 4 7 3 5
19 19 20 22 21 23 24 28 31 35 27 3 3 3 4 4 4 11 7 10 10 9 7 3 4 6 8 5 7 6 7 5 8 9 5 5 2 3 5 9 10 9 10 10 7 6 4
18 18 17 19 18 20 22 25 29 35 25 4 3 5 6 8 9 9 9 5 8 13 5 5 7 8 8 4 5 6 6 6 6 2 5 4 3 3 5 7 9 12 12 12 12 10 9
17 17 16 16 16 17 19 21 24 30 19 7 11 10 4 7 7 7 6 7 12 10 12 9 5 3 13 9 9 8 8 7 4 6 5 6 3 2 3 6 9 7 7 10 11 9 6
17 17 17 15 14 15 16 17 20 21 21 9 7 10 3 6 8 9 17 16 11 7 5 7 10 6 4 8 7 8 9 7 7 6 3 4 5 3 2 5 7 7 10 13 19 16 6
17 16 16 14 13 13 13 15 15 17 19 16 10 6 3 6 10 13 18 14 13 4 6 7 7 5 7 7 5 5 4 4 5 6 8 4 4 3 5 6 8 7 11 1 4 3 7
16 16 16 14 13 13 12 13 15 15 18 19 13 13 4 4 2 14 16 13 5 7 7 7 7 4 4 3 3 1 3 3 4 4 8 9 5 5 3 5 8 7 11 4 5 3 7
17 17 16 14 13 13 12 12 14 13 15 18 11 9 6 5 6 10 9 8 6 7 5 6 9 7 4 3 3 4 7 7 9 9 9 4 5 8 5 6 6 7 11 5 6 5 6
17 15 15 14 13 12 11 11 12 13 13 16 13 7 8 4 11 10 11 10 9 5 5 9 6 5 4 0 2 5 4 5 7 6 5 5 5 5 3 4 9 4 5 2 3 3 5
15 14 14 13 12 12 10 10 10 11 11 12 8 21 17 4 7 30 28 23 18 11 5 5 4 5 4 4 5 4 4 4 6 7 6 4 4 3 8 7 6 5 7 7 5 3 2
Wind_Direction
4 2 4 3 1 2 3 2 3 2 0 0 359 359 359 359 359 356 351 346 340 343 332 309 228 190 146 212 251 189 170 185 180 166 210 236 255 266 269 301 326 335 344 17 358 57 11
360 0 2 4 1 0 360 0 360 359 358 357 358 357 357 357 357 357 349 343 334 347 354 0 178 161 191 262 177 175 176 163 167 168 218 248 255 262 285 286 290 290 25 312 282 139 228
357 358 0 1 360 359 358 358 357 356 355 354 354 353 353 354 353 356 347 340 329 355 19 53 136 124 270 262 149 125 163 165 176 193 230 231 258 321 311 308 305 303 305 267 250 192 197
2 3 2 2 360 359 357 357 356 353 352 351 350 350 349 350 349 351 347 347 322 349 30 72 127 42 247 192 154 165 191 192 195 220 241 289 300 253 280 283 300 296 273 268 193 192 162
1 0 358 358 356 355 354 353 352 351 349 347 346 346 344 345 345 345 344 339 295 321 316 287 243 206 276 185 211 197 211 211 200 217 249 266 351 280 290 272 294 272 253 174 176 141 133
1 358 357 356 354 351 350 350 349 349 347 345 343 342 341 340 341 339 336 324 269 288 299 303 269 293 266 211 205 194 227 260 211 213 218 203 239 230 285 267 256 307 340 126 146 181 123
2 360 357 356 355 352 350 349 347 347 347 344 341 339 338 336 335 335 331 0 36 254 239 219 221 221 165 221 174 191 199 228 258 241 228 218 182 234 239 214 329 337 347 358 78 118 100
2 0 358 356 355 354 352 348 347 346 346 344 340 339 336 332 331 327 313 245 50 275 297 257 246 262 213 147 176 204 178 200 214 242 242 275 235 253 347 35 12 331 316 307 147 125 104
1 359 358 355 354 353 352 349 347 346 345 343 340 338 335 330 327 333 284 355 310 299 260 275 222 235 180 166 238 191 159 216 248 236 243 221 248 123 14 320 258 302 305 24 28 359 355
1 359 357 354 354 353 353 351 347 345 343 341 338 337 336 334 335 330 295 2 352 334 299 248 181 209 204 192 246 199 173 204 223 233 271 216 119 43 339 288 12 70 8 8 353 6 281
360 358 356 355 354 354 354 351 348 344 341 339 336 334 331 335 300 304 325 338 330 306 319 144 173 199 154 183 194 149 172 227 258 290 327 261 162 147 243 8 57 326 12 329 295 284 291
359 357 356 355 354 355 356 352 348 344 341 337 330 331 327 334 302 267 314 309 302 345 247 171 137 170 164 213 256 150 159 223 293 299 313 259 296 76 354 34 38 348 300 295 273 213 269
356 356 354 353 355 355 354 352 348 344 340 336 326 325 313 286 239 323 323 308 258 228 148 155 167 166 190 189 240 147 182 197 216 247 268 282 246 179 151 18 302 215 10 342 352 0 229
353 353 356 357 357 355 354 351 348 344 340 338 327 323 300 267 275 293 292 337 248 269 262 196 163 163 183 204 215 179 171 200 217 229 263 255 317 147 133 193 68 327 113 147 298 330 291
349 353 354 355 355 356 354 351 349 344 341 342 330 329 276 263 246 227 303 254 224 201 340 345 126 195 202 203 210 183 186 197 221 202 184 241 58 70 150 128 118 356 352 248 16 314 11
343 345 345 348 351 353 354 352 350 346 341 346 330 309 263 228 219 208 188 251 297 318 293 2 355 331 264 273 226 155 181 213 231 205 109 54 56 252 198 94 148 180 222 15 340 288 277
338 339 343 344 346 348 351 353 353 351 344 351 318 291 214 160 166 159 220 251 277 285 102 28 327 315 304 310 318 209 207 220 260 124 93 67 97 298 111 174 212 327 192 241 141 113 207
333 335 338 338 340 345 347 351 355 357 353 4 323 280 162 185 144 206 227 249 265 290 121 115 271 275 294 308 327 314 334 77 4 131 129 111 124 229 227 297 315 173 187 140 113 301 302
329 329 333 334 337 342 345 348 353 358 6 338 315 276 300 209 228 236 259 260 259 243 296 284 267 231 279 290 327 338 17 64 45 52 58 337 333 5 330 333 339 275 179 106 111 135 234
321 322 327 332 335 339 342 346 349 352 356 346 286 292 254 208 224 265 297 292 294 168 224 301 336 338 336 288 274 320 323 137 80 102 96 71 12 157 195 227 285 303 309 197 187 154 227
319 318 321 326 329 337 342 345 349 348 347 324 240 269 4 346 356 329 307 273 318 309 151 179 285 270 290 312 334 295 291 117 123 169 130 111 186 310 307 305 304 308 312 317 309 238 210
320 322 319 322 326 336 340 344 350 351 348 193 300 356 337 300 302 311 301 326 313 308 332 245 199 255 269 309 334 332 25 347 203 179 133 155 224 252 275 291 299 292 285 283 275 278 285
310 316 315 319 325 332 340 343 350 358 13 345 350 343 302 299 315 321 279 287 297 281 291 291 350 6 48 25 356 320 302 298 44 135 155 153 142 99 253 337 335 310 284 286 287 272 237
304 309 313 316 321 328 338 343 347 358 10 339 301 308 298 302 319 305 313 313 276 29 340 2 10 16 48 34 348 339 329 322 354 357 50 150 136 121 238 347 281 255 268 271 267 263 147
299 301 305 309 314 321 331 341 342 345 354 344 302 307 307 300 320 318 341 326 309 22 345 338 327 2 5 38 7 350 331 339 313 298 311 307 165 187 162 212 263 282 283 292 13 270 88
291 293 301 302 306 313 320 334 340 341 347 347 305 323 317 298 173 338 315 317 345 0 343 305 302 271 13 57 20 275 258 317 288 289 238 245 187 170 191 212 252 239 282 357 71 305 74
285 287 291 294 296 303 310 324 334 336 343 342 289 327 293 289 269 341 358 340 342 350 312 20 336 340 182 172 209 249 258 268 251 254 269 248 249 217 212 233 248 245 278 213 163 219 91
279 280 283 287 288 293 299 309 325 331 339 346 291 327 296 290 298 302 350 335 344 350 357 344 333 19 321 286 242 227 257 259 283 264 247 238 196 211 171 239 264 26 30 108 195 75 67
275 276 277 277 283 283 288 299 313 323 329 336 297 329 343 278 292 306 291 272 270 278 312 327 306 317 352 1 14 349 341 322 284 283 301 295 229 229 197 224 189 172 158 170 186 188 215